Wetterdaten: Woche 13.01.14 - 19.01.14 (KW3)
Datum Zeit Temperatur Luftfeuchte Luftdruck Niederschlag Windrichtung Sonnenschein Solar Wind
13.01.2014 00:00 1,4 C 98 % 1018,8 hPa 0,0 l/m N 0,00 h 0 W/m 0,0 km/h (0 Bft)
13.01.2014 01:00 1,6 C 98 % 1018,2 hPa 0,0 l/m N-NO 0,00 h 0 W/m 3,1 km/h (1 Bft)
13.01.2014 02:00 2,2 C 98 % 1018,1 hPa 0,0 l/m SW 0,00 h 0 W/m 9,8 km/h (2 Bft)
13.01.2014 03:00 2,5 C 98 % 1018,0 hPa 0,0 l/m SW 0,00 h 0 W/m 11,8 km/h (2 Bft)
13.01.2014 04:00 2,2 C 98 % 1017,9 hPa 0,0 l/m SW 0,00 h 0 W/m 6,8 km/h (2 Bft)
13.01.2014 05:00 2,0 C 98 % 1017,6 hPa 0,0 l/m S-SW 0,00 h 0 W/m 11,2 km/h (2 Bft)
13.01.2014 06:00 1,9 C 97 % 1017,7 hPa 0,0 l/m SW 0,00 h 0 W/m 10,4 km/h (2 Bft)
13.01.2014 07:00 1,9 C 98 % 1017,4 hPa 0,0 l/m S-SW 0,00 h 0 W/m 10,2 km/h (2 Bft)
13.01.2014 08:00 1,9 C 98 % 1017,3 hPa 0,0 l/m S-SW 0,00 h 9 W/m 10,1 km/h (2 Bft)
13.01.2014 09:00 2,1 C 98 % 1017,0 hPa 0,0 l/m SW 0,00 h 23 W/m 9,3 km/h (2 Bft)
13.01.2014 10:00 2,4 C 98 % 1016,4 hPa 0,0 l/m S-SW 0,00 h 47 W/m 10,6 km/h (2 Bft)
13.01.2014 11:00 2,7 C 98 % 1016,1 hPa 0,0 l/m W-SW 0,00 h 49 W/m 7,9 km/h (2 Bft)
13.01.2014 12:00 3,4 C 98 % 1015,2 hPa 0,0 l/m SW 0,00 h 75 W/m 6,2 km/h (2 Bft)
13.01.2014 13:00 3,9 C 96 % 1014,5 hPa 0,0 l/m SW 0,00 h 94 W/m 8,2 km/h (2 Bft)
13.01.2014 14:00 3,9 C 96 % 1013,8 hPa 0,0 l/m S-SW 0,00 h 56 W/m 9,9 km/h (2 Bft)
13.01.2014 15:00 3,5 C 97 % 1013,5 hPa 0,0 l/m SW 0,00 h 27 W/m 9,1 km/h (2 Bft)
13.01.2014 16:00 3,5 C 97 % 1012,6 hPa 0,0 l/m SW 0,00 h 10 W/m 6,7 km/h (2 Bft)
13.01.2014 17:00 3,3 C 97 % 1012,8 hPa 0,0 l/m SW 0,00 h 0 W/m 7,9 km/h (2 Bft)
13.01.2014 18:00 3,3 C 97 % 1012,8 hPa 0,0 l/m S-SW 0,00 h 0 W/m 5,3 km/h (1 Bft)
13.01.2014 19:00 3,2 C 97 % 1012,5 hPa 0,0 l/m S-SW 0,00 h 0 W/m 8,8 km/h (2 Bft)
13.01.2014 20:00 3,1 C 97 % 1012,0 hPa 0,2 l/m S 0,00 h 0 W/m 5,6 km/h (1 Bft)
13.01.2014 21:00 3,2 C 98 % 1011,4 hPa 0,0 l/m S 0,00 h 0 W/m 5,5 km/h (1 Bft)
13.01.2014 22:00 3,2 C 98 % 1010,7 hPa 0,0 l/m N 0,00 h 0 W/m 2,7 km/h (1 Bft)
13.01.2014 23:00 3,4 C 98 % 1010,0 hPa 0,2 l/m N 0,00 h 0 W/m 1,1 km/h (0 Bft)
14.01.2014 00:00 3,3 C 98 % 1009,4 hPa 0,0 l/m N 0,00 h 0 W/m 0,0 km/h (0 Bft)
14.01.2014 01:00 3,3 C 98 % 1009,1 hPa 0,0 l/m N 0,00 h 0 W/m 0,0 km/h (0 Bft)
14.01.2014 02:00 3,4 C 98 % 1008,5 hPa 0,0 l/m N 0,00 h 0 W/m 0,0 km/h (0 Bft)
14.01.2014 03:00 3,4 C 98 % 1007,8 hPa 0,0 l/m N 0,00 h 0 W/m 0,0 km/h (0 Bft)
14.01.2014 04:00 3,4 C 98 % 1006,9 hPa 0,2 l/m N 0,00 h 0 W/m 0,0 km/h (0 Bft)
14.01.2014 05:00 3,4 C 99 % 1006,3 hPa 1,0 l/m N 0,00 h 0 W/m 0,0 km/h (0 Bft)
14.01.2014 06:00 3,4 C 99 % 1005,9 hPa 0,8 l/m N 0,00 h 0 W/m 0,4 km/h (0 Bft)
14.01.2014 07:00 3,4 C 99 % 1005,8 hPa 0,8 l/m N 0,00 h 0 W/m 2,3 km/h (1 Bft)
14.01.2014 08:00 3,4 C 99 % 1005,6 hPa 0,6 l/m N 0,00 h 7 W/m 0,4 km/h (0 Bft)
14.01.2014 09:00 3,4 C 99 % 1005,6 hPa 0,8 l/m N 0,00 h 11 W/m 0,4 km/h (0 Bft)
14.01.2014 10:00 3,5 C 99 % 1005,5 hPa 0,8 l/m N 0,00 h 24 W/m 2,4 km/h (1 Bft)
14.01.2014 11:00 3,3 C 99 % 1005,3 hPa 0,6 l/m N 0,00 h 33 W/m 0,7 km/h (0 Bft)
14.01.2014 12:00 3,2 C 99 % 1004,8 hPa 0,8 l/m N 0,00 h 37 W/m 0,7 km/h (0 Bft)
14.01.2014 13:00 3,2 C 99 % 1004,7 hPa 0,8 l/m S 0,00 h 32 W/m 2,7 km/h (1 Bft)
14.01.2014 14:00 3,0 C 98 % 1005,1 hPa 0,8 l/m S-SW 0,00 h 26 W/m 5,1 km/h (1 Bft)
14.01.2014 15:00 2,8 C 98 % 1005,6 hPa 1,0 l/m S-SW 0,00 h 19 W/m 3,7 km/h (1 Bft)
14.01.2014 16:00 2,8 C 98 % 1006,2 hPa 0,4 l/m S-SW 0,00 h 8 W/m 4,9 km/h (1 Bft)
14.01.2014 17:00 2,9 C 98 % 1006,9 hPa 0,6 l/m S-SW 0,00 h 0 W/m 9,3 km/h (2 Bft)
14.01.2014 18:00 2,8 C 98 % 1007,7 hPa 0,2 l/m W-NW 0,00 h 0 W/m 9,0 km/h (2 Bft)
14.01.2014 19:00 2,9 C 98 % 1008,5 hPa 0,4 l/m W 0,00 h 0 W/m 7,1 km/h (2 Bft)
14.01.2014 20:00 2,8 C 98 % 1009,0 hPa 0,4 l/m W-SW 0,00 h 0 W/m 8,0 km/h (2 Bft)
14.01.2014 21:00 2,6 C 98 % 1009,5 hPa 0,0 l/m SW 0,00 h 0 W/m 7,5 km/h (2 Bft)
14.01.2014 22:00 2,6 C 98 % 1009,9 hPa 0,2 l/m SW 0,00 h 0 W/m 4,3 km/h (1 Bft)
14.01.2014 23:00 2,4 C 98 % 1010,2 hPa 0,0 l/m SW 0,00 h 0 W/m 3,9 km/h (1 Bft)
15.01.2014 00:00 2,4 C 98 % 1010,7 hPa 0,0 l/m W-SW 0,00 h 0 W/m 8,7 km/h (2 Bft)
15.01.2014 01:00 2,2 C 98 % 1011,3 hPa 0,0 l/m W-SW 0,00 h 0 W/m 6,7 km/h (2 Bft)
15.01.2014 02:00 2,1 C 98 % 1011,7 hPa 0,0 l/m W-SW 0,00 h 0 W/m 8,2 km/h (2 Bft)
15.01.2014 03:00 1,7 C 98 % 1012,2 hPa 0,0 l/m W 0,00 h 0 W/m 3,3 km/h (1 Bft)
15.01.2014 04:00 1,3 C 98 % 1012,2 hPa 0,0 l/m W 0,00 h 0 W/m 1,9 km/h (1 Bft)
15.01.2014 05:00 1,2 C 98 % 1012,4 hPa 0,0 l/m W 0,00 h 0 W/m 3,1 km/h (1 Bft)
15.01.2014 06:00 1,1 C 98 % 1012,4 hPa 0,0 l/m W 0,00 h 0 W/m 5,1 km/h (1 Bft)
15.01.2014 07:00 0,8 C 98 % 1012,9 hPa 0,0 l/m SW 0,00 h 0 W/m 9,9 km/h (2 Bft)
15.01.2014 08:00 0,2 C 97 % 1013,3 hPa 0,0 l/m W-SW 0,00 h 14 W/m 8,7 km/h (2 Bft)
15.01.2014 09:00 0,3 C 97 % 1013,4 hPa 0,0 l/m SW 0,08 h 52 W/m 3,3 km/h (1 Bft)
15.01.2014 10:00 1,2 C 95 % 1013,5 hPa 0,0 l/m SW 0,08 h 93 W/m 9,0 km/h (2 Bft)
15.01.2014 11:00 2,2 C 92 % 1012,9 hPa 0,0 l/m SW 0,67 h 278 W/m 11,1 km/h (2 Bft)
15.01.2014 12:00 3,2 C 87 % 1012,6 hPa 0,0 l/m SW 0,33 h 213 W/m 13,3 km/h (3 Bft)
15.01.2014 13:00 4,3 C 84 % 1011,8 hPa 0,0 l/m SW 1,00 h 348 W/m 15,2 km/h (3 Bft)
15.01.2014 14:00 4,6 C 80 % 1011,3 hPa 0,0 l/m W-SW 0,92 h 247 W/m 16,5 km/h (3 Bft)
15.01.2014 15:00 4,3 C 80 % 1011,4 hPa 0,0 l/m SW 0,17 h 88 W/m 13,6 km/h (3 Bft)
15.01.2014 16:00 3,7 C 84 % 1011,6 hPa 0,0 l/m SW 0,00 h 17 W/m 8,4 km/h (2 Bft)
15.01.2014 17:00 3,1 C 85 % 1011,5 hPa 0,0 l/m SW 0,00 h 0 W/m 9,3 km/h (2 Bft)
15.01.2014 18:00 3,1 C 85 % 1011,5 hPa 0,0 l/m SW 0,00 h 0 W/m 9,7 km/h (2 Bft)
15.01.2014 19:00 3,1 C 86 % 1011,5 hPa 0,0 l/m SW 0,00 h 0 W/m 7,4 km/h (2 Bft)
15.01.2014 20:00 2,7 C 90 % 1011,0 hPa 0,4 l/m SW 0,00 h 0 W/m 8,4 km/h (2 Bft)
15.01.2014 21:00 2,4 C 93 % 1010,2 hPa 0,2 l/m SW 0,00 h 0 W/m 11,7 km/h (2 Bft)
15.01.2014 22:00 2,6 C 92 % 1009,6 hPa 0,0 l/m SW 0,00 h 0 W/m 8,2 km/h (2 Bft)
15.01.2014 23:00 2,6 C 91 % 1009,5 hPa 0,0 l/m SW 0,00 h 0 W/m 4,2 km/h (1 Bft)
16.01.2014 00:00 2,4 C 91 % 1009,1 hPa 0,0 l/m N 0,00 h 0 W/m 0,8 km/h (0 Bft)
16.01.2014 01:00 2,0 C 93 % 1009,2 hPa 0,0 l/m N 0,00 h 0 W/m 1,6 km/h (1 Bft)
16.01.2014 02:00 1,8 C 94 % 1009,3 hPa 0,0 l/m SW 0,00 h 0 W/m 5,9 km/h (2 Bft)
16.01.2014 03:00 2,1 C 94 % 1009,1 hPa 0,0 l/m S-SO 0,00 h 0 W/m 6,6 km/h (2 Bft)
16.01.2014 04:00 2,1 C 94 % 1008,5 hPa 0,0 l/m S-SO 0,00 h 0 W/m 3,3 km/h (1 Bft)
16.01.2014 05:00 2,1 C 94 % 1008,0 hPa 0,0 l/m S-SO 0,00 h 0 W/m 4,0 km/h (1 Bft)
16.01.2014 06:00 2,2 C 94 % 1007,6 hPa 0,0 l/m S-SO 0,00 h 0 W/m 1,5 km/h (1 Bft)
16.01.2014 07:00 2,2 C 95 % 1007,1 hPa 0,0 l/m N 0,00 h 0 W/m 2,7 km/h (1 Bft)
16.01.2014 08:00 2,1 C 94 % 1006,9 hPa 0,0 l/m N 0,00 h 26 W/m 0,3 km/h (0 Bft)
16.01.2014 09:00 2,4 C 95 % 1006,9 hPa 0,0 l/m N 0,00 h 47 W/m 1,1 km/h (0 Bft)
16.01.2014 10:00 3,3 C 95 % 1006,9 hPa 0,0 l/m S-SO 0,00 h 64 W/m 1,7 km/h (1 Bft)
16.01.2014 11:00 4,1 C 93 % 1006,1 hPa 0,0 l/m S-SO 0,00 h 56 W/m 2,4 km/h (1 Bft)
16.01.2014 12:00 4,6 C 90 % 1005,8 hPa 0,0 l/m S-SO 0,00 h 50 W/m 4,9 km/h (1 Bft)
16.01.2014 13:00 5,2 C 88 % 1005,5 hPa 0,0 l/m S-SO 0,00 h 76 W/m 3,3 km/h (1 Bft)
16.01.2014 14:00 5,8 C 86 % 1004,7 hPa 0,0 l/m S-SW 0,00 h 39 W/m 7,2 km/h (2 Bft)
16.01.2014 15:00 5,8 C 86 % 1004,4 hPa 0,0 l/m W 0,00 h 47 W/m 5,6 km/h (1 Bft)
16.01.2014 16:00 5,6 C 86 % 1004,0 hPa 0,0 l/m W-NW 0,00 h 12 W/m 4,3 km/h (1 Bft)
16.01.2014 17:00 5,1 C 89 % 1003,4 hPa 0,0 l/m N 0,00 h 0 W/m 1,3 km/h (1 Bft)
16.01.2014 18:00 4,5 C 90 % 1003,4 hPa 0,0 l/m N 0,00 h 0 W/m 1,3 km/h (1 Bft)
16.01.2014 19:00 4,1 C 91 % 1004,0 hPa 0,0 l/m W-NW 0,00 h 0 W/m 3,5 km/h (1 Bft)
16.01.2014 20:00 3,7 C 92 % 1004,6 hPa 0,0 l/m W-NW 0,00 h 0 W/m 1,7 km/h (1 Bft)
16.01.2014 21:00 3,0 C 93 % 1005,2 hPa 0,0 l/m W-NW 0,00 h 0 W/m 4,0 km/h (1 Bft)
16.01.2014 22:00 3,2 C 95 % 1006,0 hPa 0,0 l/m W-NW 0,00 h 0 W/m 7,1 km/h (2 Bft)
16.01.2014 23:00 3,2 C 95 % 1006,1 hPa 0,0 l/m W 0,00 h 0 W/m 6,6 km/h (2 Bft)
17.01.2014 00:00 3,2 C 96 % 1006,2 hPa 0,0 l/m W-SW 0,00 h 0 W/m 5,9 km/h (2 Bft)
17.01.2014 01:00 3,4 C 96 % 1006,4 hPa 0,4 l/m SW 0,00 h 0 W/m 8,8 km/h (2 Bft)
17.01.2014 02:00 3,5 C 97 % 1006,7 hPa 0,6 l/m SW 0,00 h 0 W/m 10,9 km/h (2 Bft)
17.01.2014 03:00 3,5 C 97 % 1006,3 hPa 0,2 l/m S-SW 0,00 h 0 W/m 12,1 km/h (2 Bft)
17.01.2014 04:00 3,6 C 98 % 1005,9 hPa 0,2 l/m S-SW 0,00 h 0 W/m 18,4 km/h (3 Bft)
17.01.2014 05:00 3,5 C 98 % 1005,6 hPa 0,0 l/m S-SW 0,00 h 0 W/m 9,1 km/h (2 Bft)
17.01.2014 06:00 3,4 C 98 % 1005,4 hPa 0,0 l/m S-SW 0,00 h 0 W/m 4,9 km/h (1 Bft)
17.01.2014 07:00 3,3 C 98 % 1005,0 hPa 0,0 l/m S-SW 0,00 h 0 W/m 4,3 km/h (1 Bft)
17.01.2014 08:00 3,1 C 98 % 1004,6 hPa 0,0 l/m S-SW 0,00 h 10 W/m 3,3 km/h (1 Bft)
17.01.2014 09:00 3,1 C 98 % 1005,0 hPa 0,0 l/m W-SW 0,00 h 19 W/m 3,9 km/h (1 Bft)
17.01.2014 10:00 3,3 C 98 % 1005,4 hPa 0,0 l/m W-SW 0,00 h 28 W/m 3,2 km/h (1 Bft)
17.01.2014 11:00 3,7 C 99 % 1005,5 hPa 0,0 l/m W-SW 0,00 h 32 W/m 2,4 km/h (1 Bft)
17.01.2014 12:00 4,0 C 99 % 1005,0 hPa 0,0 l/m W-SW 0,00 h 34 W/m 5,6 km/h (1 Bft)
17.01.2014 13:00 4,3 C 98 % 1004,4 hPa 0,0 l/m S 0,00 h 63 W/m 11,4 km/h (2 Bft)
17.01.2014 14:00 5,0 C 97 % 1004,0 hPa 0,0 l/m S-SW 0,08 h 94 W/m 16,2 km/h (3 Bft)
17.01.2014 15:00 5,3 C 94 % 1003,8 hPa 0,0 l/m S-SW 0,33 h 95 W/m 15,2 km/h (3 Bft)
17.01.2014 16:00 5,1 C 92 % 1004,3 hPa 0,0 l/m S-SW 0,42 h 32 W/m 4,7 km/h (1 Bft)
17.01.2014 17:00 4,4 C 91 % 1004,4 hPa 0,0 l/m N 0,00 h 5 W/m 0,4 km/h (0 Bft)
17.01.2014 18:00 3,3 C 92 % 1004,5 hPa 0,0 l/m N 0,00 h 0 W/m 0,1 km/h (0 Bft)
17.01.2014 19:00 2,3 C 93 % 1004,8 hPa 0,0 l/m N 0,00 h 0 W/m 0,0 km/h (0 Bft)
17.01.2014 20:00 1,2 C 93 % 1005,2 hPa 0,0 l/m N 0,00 h 0 W/m 0,0 km/h (0 Bft)
17.01.2014 21:00 0,4 C 93 % 1005,4 hPa 0,0 l/m N 0,00 h 0 W/m 0,0 km/h (0 Bft)
17.01.2014 22:00 -0,2 C 94 % 1005,6 hPa 0,0 l/m N 0,00 h 0 W/m 0,0 km/h (0 Bft)
17.01.2014 23:00 -0,7 C 95 % 1005,5 hPa 0,0 l/m N 0,00 h 0 W/m 0,0 km/h (0 Bft)
18.01.2014 00:00 -0,9 C 95 % 1005,4 hPa 0,0 l/m N 0,00 h 0 W/m 0,3 km/h (0 Bft)
18.01.2014 01:00 -1,4 C 95 % 1005,5 hPa 0,0 l/m S-SW 0,00 h 0 W/m 1,1 km/h (0 Bft)
18.01.2014 02:00 -1,7 C 96 % 1005,7 hPa 0,0 l/m S-SW 0,00 h 0 W/m 2,8 km/h (1 Bft)
18.01.2014 03:00 -2,1 C 96 % 1005,8 hPa 0,0 l/m W-NW 0,00 h 0 W/m 5,6 km/h (1 Bft)
18.01.2014 04:00 -2,3 C 96 % 1005,4 hPa 0,0 l/m W-NW 0,00 h 0 W/m 5,9 km/h (2 Bft)
18.01.2014 05:00 -2,1 C 97 % 1005,0 hPa 0,0 l/m NW 0,00 h 0 W/m 5,1 km/h (1 Bft)
18.01.2014 06:00 -2,1 C 97 % 1004,7 hPa 0,0 l/m NW 0,00 h 0 W/m 5,7 km/h (1 Bft)
18.01.2014 07:00 -2,2 C 97 % 1004,5 hPa 0,0 l/m NW 0,00 h 0 W/m 6,1 km/h (2 Bft)
18.01.2014 08:00 -1,9 C 98 % 1004,4 hPa 0,0 l/m N-NW 0,00 h 10 W/m 7,2 km/h (2 Bft)
18.01.2014 09:00 -1,6 C 98 % 1004,4 hPa 0,0 l/m N 0,00 h 40 W/m 8,4 km/h (2 Bft)
18.01.2014 10:00 -1,2 C 98 % 1004,5 hPa 0,0 l/m N-NO 0,00 h 62 W/m 5,1 km/h (1 Bft)
18.01.2014 11:00 -0,7 C 98 % 1004,0 hPa 0,0 l/m N-NO 0,00 h 77 W/m 6,8 km/h (2 Bft)
18.01.2014 12:00 -0,4 C 99 % 1003,0 hPa 0,0 l/m NO 0,00 h 84 W/m 7,1 km/h (2 Bft)
18.01.2014 13:00 0,0 C 99 % 1002,4 hPa 0,0 l/m NO 0,00 h 99 W/m 6,3 km/h (2 Bft)
18.01.2014 14:00 0,3 C 99 % 1002,1 hPa 0,0 l/m NO 0,00 h 43 W/m 5,7 km/h (1 Bft)
18.01.2014 15:00 0,3 C 98 % 1002,2 hPa 0,0 l/m NO 0,00 h 23 W/m 7,6 km/h (2 Bft)
18.01.2014 16:00 0,2 C 98 % 1001,8 hPa 0,0 l/m NO 0,00 h 10 W/m 8,7 km/h (2 Bft)
18.01.2014 17:00 -0,0 C 98 % 1001,7 hPa 0,0 l/m NO 0,00 h 0 W/m 10,1 km/h (2 Bft)
18.01.2014 18:00 -0,2 C 99 % 1001,8 hPa 0,0 l/m NO 0,00 h 0 W/m 8,8 km/h (2 Bft)
18.01.2014 19:00 -0,2 C 99 % 1001,6 hPa 0,0 l/m NO 0,00 h 0 W/m 9,4 km/h (2 Bft)
18.01.2014 20:00 -0,2 C 99 % 1001,2 hPa 0,0 l/m NO 0,00 h 0 W/m 10,2 km/h (2 Bft)
18.01.2014 21:00 0,0 C 99 % 1000,8 hPa 0,0 l/m NO 0,00 h 0 W/m 9,8 km/h (2 Bft)
18.01.2014 22:00 0,3 C 99 % 1000,3 hPa 0,0 l/m NO 0,00 h 0 W/m 9,9 km/h (2 Bft)
18.01.2014 23:00 0,4 C 99 % 999,8 hPa 0,0 l/m NO 0,00 h 0 W/m 7,9 km/h (2 Bft)
19.01.2014 00:00 0,5 C 99 % 999,3 hPa 0,0 l/m NO 0,00 h 0 W/m 7,6 km/h (2 Bft)
19.01.2014 01:00 0,5 C 99 % 999,1 hPa 0,0 l/m NO 0,00 h 0 W/m 7,8 km/h (2 Bft)
19.01.2014 02:00 0,5 C 99 % 999,2 hPa 0,0 l/m NO 0,00 h 0 W/m 6,9 km/h (2 Bft)
19.01.2014 03:00 0,4 C 99 % 999,0 hPa 0,0 l/m NO 0,00 h 0 W/m 6,7 km/h (2 Bft)
19.01.2014 04:00 0,3 C 99 % 999,0 hPa 0,0 l/m NO 0,00 h 0 W/m 6,3 km/h (2 Bft)
19.01.2014 05:00 0,3 C 99 % 998,9 hPa 0,0 l/m NO 0,00 h 0 W/m 4,8 km/h (1 Bft)
19.01.2014 06:00 0,3 C 99 % 998,8 hPa 0,0 l/m NO 0,00 h 0 W/m 3,1 km/h (1 Bft)
19.01.2014 07:00 0,2 C 99 % 998,7 hPa 0,0 l/m NO 0,00 h 0 W/m 3,2 km/h (1 Bft)
19.01.2014 08:00 0,1 C 99 % 999,0 hPa 0,0 l/m NO 0,00 h 10 W/m 6,3 km/h (2 Bft)
19.01.2014 09:00 0,2 C 99 % 999,5 hPa 0,0 l/m NO 0,00 h 31 W/m 6,5 km/h (2 Bft)
19.01.2014 10:00 0,4 C 99 % 999,5 hPa 0,0 l/m NO 0,00 h 63 W/m 6,0 km/h (2 Bft)
19.01.2014 11:00 1,0 C 100 % 999,2 hPa 0,0 l/m NO 0,00 h 63 W/m 7,4 km/h (2 Bft)
19.01.2014 12:00 1,3 C 100 % 998,6 hPa 0,0 l/m NO 0,00 h 83 W/m 7,6 km/h (2 Bft)
19.01.2014 13:00 1,7 C 100 % 998,4 hPa 0,0 l/m N-NO 0,00 h 79 W/m 9,5 km/h (2 Bft)
19.01.2014 14:00 1,9 C 100 % 998,0 hPa 0,0 l/m N-NO 0,00 h 51 W/m 7,4 km/h (2 Bft)
19.01.2014 15:00 2,0 C 100 % 998,2 hPa 0,0 l/m N-NO 0,00 h 27 W/m 5,6 km/h (1 Bft)
19.01.2014 16:00 1,9 C 100 % 998,5 hPa 0,0 l/m N-NO 0,00 h 9 W/m 4,3 km/h (1 Bft)
19.01.2014 17:00 1,8 C 99 % 998,5 hPa 0,0 l/m N-NO 0,00 h 0 W/m 4,9 km/h (1 Bft)
19.01.2014 18:00 1,7 C 100 % 998,5 hPa 0,0 l/m N-NO 0,00 h 0 W/m 6,8 km/h (2 Bft)
19.01.2014 19:00 1,4 C 99 % 998,5 hPa 0,0 l/m N-NO 0,00 h 0 W/m 6,0 km/h (2 Bft)
19.01.2014 20:00 1,1 C 99 % 998,8 hPa 0,0 l/m N-NO 0,00 h 0 W/m 4,5 km/h (1 Bft)
19.01.2014 21:00 0,9 C 99 % 998,8 hPa 0,0 l/m N-NO 0,00 h 0 W/m 6,3 km/h (2 Bft)
19.01.2014 22:00 0,5 C 99 % 998,7 hPa 0,0 l/m N-NO 0,00 h 0 W/m 5,5 km/h (1 Bft)
19.01.2014 23:00 0,6 C 100 % 998,7 hPa 0,0 l/m N 0,00 h 0 W/m 2,3 km/h (1 Bft)
Min-Datum _ 18.01.14 15.01.14 19.01.14 - - - - 13.01.14
_ Min-Zeit 03:40 14:55 14:20 - - - - 00:00
Minimum _ -2,3 C 77 % 997,9 hPa - - - - 0,0 km/h (0 Bft)
Max-Datum _ 16.01.14 17.01.14 13.01.14 14.01.14 - 15.01.14 15.01.14 17.01.14
_ Max-Zeit 14:10 23:05 00:05 05:00 - 09:45 12:15 04:10
Maximum _ 5,9 C 100 % 1018,9 hPa 1,0 l/m - 0,08 h 455 W/m 24,1 km/h
S-SW (4 Bft)
Durchschnitt _ 2,1 C 96 % 1006,8 hPa #13,6 l/m SW #4:05 h 57 W/m 5,9 km/h (2 Bft)